Негодяйка

Россия / Алтайский край     51°55′27″N   85°44′29″E
темп.,
°C
ветер,
м/с
пор.,
м/с
влажн.,
%
обл.,
%
осадки,
мм/ч
давл.,
гПа
погр.,
м
10 мая, пн
пн1000:00+6с23690 0.0 101871
03:00+4с11722 0.0 101812
06:00+4ссв11695 0.0 1018103
09:00+9св235578 0.0 1017606
12:00+15всв5645100 0.0 10141475
15:00+17св553598 0.0 10121723
18:00+15св594997 0.0 1011451
21:00+8св356480 0.0 1012120
11 мая, вт
вт1100:00+5св017649 0.0 101211
03:00+3з118230 0.0 101210
06:00+5з227982 0.0 1013119
09:00+8зсз3465100 0.0 1013703
12:00+12зсз445594 0.0 10131244
15:00+14зсз3351100 0.0 10131640
18:00+13зюз2259100 0.0 1013281
21:00+9ююз3365100 0.0 101526
12 мая, ср
ср1200:00+9ююз2265100 0.0 101430
03:00+9юз1163100 0.0 101417
06:00+10зюз2267100 0.0 101572
09:00+13сз336097 0.1 1015756
12:00+15сз3452100 0.6 10151222
15:00+15св5657100 0.7 10151213
18:00+14вюв1259100 0.9 1015577
21:00+9ю228077 1.1 101715
13 мая, чт
чт1300:00+8юз228493 1.4 101827
03:00+7юз2287100 0.1 101818
06:00+8юз1283100 0.1 101858
09:00+13сз126233 0.0 1017672
12:00+16ссв224769 0.3 10161621
15:00+17ссв224157 0.0 10151982
18:00+17всв22495 0.0 1015807
21:00+11ююв11625 0.0 101610
14 мая, пт
пт1400:00+10ю2264100 0.0 101618
03:00+9юз2267100 0.0 101616
06:00+11ююз2270100 0.0 101762
09:00+12зсз2574100 0.4 1017419
12:00+11зюз368189 1.8 1018570
15:00+12з487659 1.8 1018455
18:00+12зюз1270100 2.4 101948
21:00+10ююз337697 0.1 102253